STARLINK-33896, 63861

Orbit data source: Space-Track

STARLINK-33896, 63861 is a payload satellite owned by SpaceX/Seattle (US) in LEO that was launched on Wed, 07 May 2025 UTC via an FALCON 9 launch vehicle from the Air Force Eastern Test Range (AFETR). Payload-class satellites include a variety of spacecraft equipped with specific instruments for various scientific and technological missions. These include communications satellites like Starlink; space stations such as the ISS; scientific satellites like the Hubble; Earth observation satellites from companies like Planet Labs, Umbra, and HawkEye 360; GPS; miniature CubeSats for education and research; and military/defense satellites.

Loading next visibility...
Identifier
63861, 2025-093AB
Orbit
LEO
Country
Flag of USUS
Related business
Manufacturer
SpaceX/Seattle
Mission
Operational Commercial Communications
Bus & Motor
STARLINK V2MO, Unknown motor
Mass
575 kg wet, ~530 kg dry
Launch date (UTC)
2025-05-07 (7 months ago)
Launch vehicle
FALCON 9
Launch site
Air Force Eastern Test Range (AFETR)
Object type
Payload
Rocket body
Debris
Shape & HBR
Box + 2 Pan, 17.7 m
Radar Cross Section
36.964 m², Large (>1 m²)

Expand to show TLE details & history
Last TLE update: 14 hours ago

TLE from 14 hours ago
0 STARLINK-33896
1 63861U 25093AB  25349.62317759  .00015094  00000-0  55675-3 0  9996
2 63861  42.9988 192.7889 0000889 254.1596 105.9158 15.27588774 34894
Epoch: 2025-12-15T14:57Z
TLE epoch observation values (Epoch: 2025-12-15T14:57:22.543Z)
Latitude
-0.00001°
Longitude
-116.07412°
Altitude
482.965 km
Speed
7.626 km/s
True Right ascension
12h 51m 09s
True Declination
0° 00' 00"
Sunlit
Object was in daylight at epoch
Visualization orbit readout
Latitude
Unknown
Longitude
Unknown
Altitude
Unknown
Speed
Unknown
Apparent Right ascension
Unknown
Apparent Declination
Unknown
Sunlit
N/A
Visualization observer readout
Local Sidereal Time
03:12:44
Azimuth
Unknown
Elevation
Unknown
Doppler factor
Unknown
Orbital elements
Apogee altitude
485.578 km
Perigee altitude
484.358 km
Semi-major axis
6,863.105 km
Eccentricity
0.00009
Inclination
42.9988°
RAAN
192.7889°
Arg. of periapsis
254.1596°
True anomaly
105.9256°
Mean anomaly
105.9158°
Eccentric anomaly
105.9207°
Mean motion
3.81735 °/min
Orbital period
94.31 mins
BSTAR
0.00055675
Loading maneuver chart data...
Computing Atmospheric mass density...
Loading historical data...
Loading historical data...
Loading historical data...
Loading historical data...
Loading historical data...
Loading historical data...
Loading historical data...

Documentation

Showing up to 5 results
|